Regional Weather Roundup
Issued by NWS

Home | Current Version | Previous Version | Text Only | Print | Product List | Glossary On
Versions: 1 2 3 4 5 6 7 8 9 10 11 12 13 14 15 16 17 18 19 20 21 22 23 24 25 26 27 28 29 30 31 32 33 34 35 36 37 38 39 40 41 42 43 44 45 46 47 48 49 50
000
ASUS43 KDTX 232210
RWRMI
MICHIGAN HOURLY REGIONAL WEATHER ROUNDUP
NATIONAL WEATHER SERVICE DETROIT/PONTIAC MI
600 PM EDT THU OCT 23 2014

NOTE: "FAIR" INDICATES FEW OR NO CLOUDS BELOW 12,000 FEET WITH NO
SIGNIFICANT WEATHER AND/OR OBSTRUCTION TO VISIBILITY.

MIZ047>049-052>055-059>063-066>070-074>076-081>083-232300-
SOUTHEAST LOWER MICHIGAN

CITY           SKY/WX    TMP DP  RH WIND       PRES   REMARKS
ADRIAN         CLEAR     56  37  49 VRB5      30.14S
ALMA           PTCLDY    52  38  60 CALM      30.11F
ANN ARBOR      CLEAR     54  37  52 W3        30.12F
BAD AXE        PTCLDY    50  41  71 W6        30.14R
CARO           CLEAR     50  39  65 W5        30.13F
DETROIT CITY   CLEAR     59  37  44 W6        30.13S
DETROIT        PTCLDY    57  38  48 W5        30.13F
FLINT          CLEAR     55  36  48 SW5       30.13S
GROSSE ILE     CLEAR     54  46  76 S7        30.13S
HILLSDALE      CLEAR     55  37  50 CALM      30.12F
HOWELL         CLEAR     53  38  56 CALM      30.12F

CITY           SKY/WX    TMP DP  RH WIND       PRES   REMARKS
JACKSON        CLEAR     54  37  52 SW5       30.12F
LAMBERTVILLE   CLEAR     57  37  47 CALM      30.14F
LANSING        PTCLDY    54  33  45 CALM      30.12F
LAPEER         FAIR      54  36  50 W6        30.13F
MASON          CLEAR     55  37  50 CALM      30.12F
MT. CLEMENS    PTCLDY    52  44  76 S6        30.10S
PONTIAC        PTCLDY    55  36  48 W7        30.12S
PORT HOPE        N/A     48  39  71 W3        30.13R
PORT HURON     CLEAR     52  45  76 NE5       30.13S
TRI CITIES     CLEAR     52  36  54 CALM      30.14F
TROY           CLEAR     59  33  38 CALM      30.14S
SAGINAW HB     CLEAR     52  36  54 CALM      30.13F
$$
MIZ043>046-050>051-056>058-064>065-071>073-077>080-232300-
SOUTHWEST LOWER MICHIGAN

CITY           SKY/WX    TMP DP  RH WIND       PRES   REMARKS
BATTLE CREEK   PTCLDY    54  38  54 S6        30.11F
BENTON HARBOR  MOCLDY    52  45  77 CALM      30.10F
BIG RAPIDS     MOCLDY    55  44  66 S6        30.09F
COLDWATER      PTCLDY    55  39  55 CALM      30.11F
FREMONT        FAIR      53  38  57 S5        30.09F
HOLLAND        MOCLDY    54  44  69 W8        30.12R
GRAND RAPIDS   MOCLDY    56  40  55 CALM      30.10F
IONIA          FAIR      55  37  51 CALM      30.09F
KALAMAZOO      PTCLDY    55  38  52 S5        30.12S
LUDINGTON      MOCLDY    52  44  76 W5        30.07F
MARSHALL       CLEAR     54  36  51 CALM      30.10F
MOUNT PLEASANT PTCLDY    53  38  57 CALM      30.11R
MUSKEGON       MOCLDY    53  43  68 S8        30.10F
SOUTH HAVEN    MOCLDY    55  44  67 CALM      30.11S
$$
MIZ016>042-232300-
NORTHERN LOWER MICHIGAN

CITY           SKY/WX    TMP DP  RH WIND       PRES   REMARKS
ALPENA         CLEAR     48  41  76 SE8       30.10F
BEAVER ISLAND  MOCLDY    51  44  77 S3        30.08F
BELLAIRE       MOCLDY    52  40  64 CALM      30.08F
CADILLAC       CLOUDY    51  42  71 S7        30.08S
CHARLEVOIX     MOCLDY    51  45  79 CALM      30.12S
FRANKFORT      CLOUDY    52  42  68 CALM      30.07F
GAYLORD        CLEAR     49  30  48 S5        30.08F
GRAYLING       CLEAR     48  38  67 SE3       30.10F
HARBOR SPRINGS PTCLDY    50  40  67 CALM      30.09S
HOUGHTON LAKE  PTCLDY    45  36  70 CALM      30.10F
OSCODA         CLEAR     47  37  68 S5        30.12S
PELLSTON       CLEAR     49  40  71 N6        30.09F
ROGERS CITY    PTCLDY    48  43  81 E7        30.11F
TRAVERSE CITY  CLOUDY    56  39  53 CALM      30.07F
$$
MIZ007>008-015-232300-
EASTERN UPPER MICHIGAN

CITY           SKY/WX    TMP DP  RH WIND       PRES   REMARKS
KINROSS        MOCLDY    50  37  62 S5        30.09S
MACKINAC ISLAN PTCLDY    45  40  83 E3        30.09F
NEWBERRY       MOCLDY    46  42  85 SW6       30.07S
S. S. MARIE    PTCLDY    51  35  54 S8        30.08S
MUNISING         N/A     52  45  77 S7        30.02S
$$
MIZ004>006-011>014-085-232300-
CENTRAL UPPER MICHIGAN

CITY           SKY/WX    TMP DP  RH WIND       PRES   REMARKS
MANISTIQUE     MOCLDY    50  46  87 S9        30.05F
ESCANABA       CLOUDY    50  46  87 S5        30.04S
MENOMINEE      CLOUDY    50  45  81 S6        30.03F
SAWYER-GWINN   DRIZZLE   46  45  93 S10       30.01S
$$
MIZ001>003-009>011-084-232300-
WESTERN UPPER MICHIGAN

CITY           SKY/WX    TMP DP  RH WIND       PRES   REMARKS
IRON MOUNTAIN  LGT RAIN  45  44  97 S7        30.01S FOG
HOUGHTON       CLOUDY    47  45  93 S5        29.97S FOG
COPPER HARBOR    N/A     48  45  89 SW5       29.97F
IRONWOOD       CLOUDY    48  46  93 SW10      29.95S
$$

ABBREVIATIONS USED IN REMARKS
   TC - TEMPERATURE IN CELSIUS
  WCI - WIND CHILL INDEX
   HX - HEAT INDEX
  VSB - VISIBILITY




USA.gov is the U.S. government's official web portal to all federal, state and local government web resources and services.